Shungnak AP, Shungnak, AK, AK

6:08 PM AKST on November 20, 2019 (GMT -0900)
Shungnak AP, Shungnak, AK

Weather History for PAGH - September, 2019

Change the Weather History Date:

Monday, September 9, 2019

  Actual Average (PAFM) Record (PAFM)
Temperature  
Mean Temperature 52 °F -  
Max Temperature 55 °F 47 °F 64 °F (2010)
Min Temperature 48 °F 35 °F 22 °F (1990)
Degree Days  
Heating Degree Days 14    
Growing Degree Days 2 (Base 50)    
Moisture  
Dew Point 47 °F    
Average Humidity 86    
Maximum Humidity 93    
Minimum Humidity 75    
Precipitation  
Precipitation 0.00 in - - ()
Sea Level Pressure  
Sea Level Pressure 29.89 in    
Wind  
Wind Speed 10 mph (ESE)    
Max Wind Speed 14 mph    
Max Gust Speed -    
Visibility 10 miles    
Events Rain    
Averages and records for this station are not official NWS values.
T = Trace of Precipitation, MM = Missing Value Source: NWS Daily Summary

Daily Weather History Graph

Daily Weather History Graph

Search for Another Location

Airport or City:

Astronomy

Sep. 09, 2019 Rise Set
Actual Time 7:27 AM AKDT 9:22 PM AKDT
Civil Twilight 6:30 AM AKDT 10:18 PM AKDT
Nautical Twilight 5:11 AM AKDT 11:35 PM AKDT
Astronomical Twilight 2:58 AM AKDT 2:00 AM AKDT
Moon 9:54 PM AKDT (9/9) 12:05 AM AKDT (9/9)
Length of Visible Light 15h 48m
Length of Day
13h 54m
Waxing Gibbous, 84% of the Moon is Illuminated
Sep 9
Waxing Gibbous
Sep 13
Full
Sep 21
Last Quarter
Sep 28
New
Oct 5
First Quarter

Hourly Weather History & Observations

Time (AKDT) Temp. Dew Point Humidity Pressure Visibility Wind Dir Wind Speed Gust Speed Precip Events Conditions
12:56 AM 50.0 °F 45.0 °F 83% 29.97 in 10.0 mi East 8.1 mph - N/A   Overcast
1:56 AM 51.1 °F 46.0 °F 83% 29.96 in 10.0 mi East 8.1 mph - N/A   Overcast
2:56 AM 51.1 °F 45.0 °F 80% 29.96 in 10.0 mi ESE 10.4 mph - N/A   Overcast
3:56 AM 51.1 °F 46.0 °F 83% 29.96 in 10.0 mi ESE 11.5 mph - N/A   Overcast
4:28 AM 50.0 °F 46.4 °F 87% 29.94 in 10.0 mi ESE 11.5 mph - N/A   Overcast
4:46 AM 50.0 °F 46.4 °F 87% 29.94 in 10.0 mi ESE 11.5 mph - N/A   Mostly Cloudy
4:56 AM 48.9 °F 46.0 °F 90% 29.96 in 10.0 mi ESE 10.4 mph - N/A   Scattered Clouds
5:56 AM 48.9 °F 46.0 °F 90% 29.95 in 10.0 mi ESE 11.5 mph - N/A   Mostly Cloudy
6:56 AM 48.9 °F 46.0 °F 90% 29.95 in 10.0 mi ESE 12.7 mph - N/A   Clear
7:56 AM 48.9 °F 46.0 °F 90% 29.94 in 10.0 mi ESE 13.8 mph - N/A   Overcast
9:56 AM 48.9 °F 46.9 °F 93% 29.94 in 10.0 mi ESE 10.4 mph - N/A Rain Light Rain
10:56 AM 48.9 °F 46.9 °F 93% 29.93 in 10.0 mi East 11.5 mph - N/A Rain Light Rain
11:56 AM 50.0 °F 46.9 °F 89% 29.91 in 10.0 mi East 13.8 mph - N/A Rain Light Rain
12:56 PM 51.1 °F 48.0 °F 89% 29.90 in 10.0 mi East 11.5 mph - N/A Rain Light Rain
1:56 PM 51.1 °F 48.9 °F 92% 29.88 in 10.0 mi East 12.7 mph - N/A Rain Light Rain
2:56 PM 53.1 °F 48.9 °F 86% 29.87 in 10.0 mi East 10.4 mph - N/A   Overcast
3:56 PM 55.0 °F 50.0 °F 83% 29.85 in 10.0 mi East 12.7 mph - N/A   Overcast
5:56 PM 55.9 °F 48.9 °F 77% 29.81 in 10.0 mi ESE 9.2 mph - N/A   Overcast
6:56 PM 55.9 °F 48.9 °F 77% 29.81 in 10.0 mi East 6.9 mph - N/A   Overcast
7:56 PM 55.9 °F 48.0 °F 75% 29.79 in 10.0 mi ESE 6.9 mph - N/A   Overcast
8:56 PM 55.0 °F 48.9 °F 80% 29.78 in 10.0 mi East 6.9 mph - N/A Rain Light Rain
9:56 PM 54.0 °F 48.9 °F 83% 29.78 in 10.0 mi SE 4.6 mph - N/A Rain Light Rain
10:56 PM 53.1 °F 48.9 °F 86% 29.77 in 10.0 mi SE 5.8 mph - N/A   Mostly Cloudy
11:56 PM 52.0 °F 48.0 °F 86% 29.77 in 10.0 mi SE 6.9 mph - N/A   Overcast